Location: Battery Park City
(40.7115°N, 74.0163°W)
Time: 12:46:03
(UTC+00:00)

CSL-04 Rocket - Pass Details

Date: 08 December 2019
Orbit: 807 x 859 km, 99.0° (Epoch: 18 January)

Event Time Altitude Azimuth Distance (km) Brightness Sun altitude
Rises 23:41:06 0° 171° (S) 3,312 6.8 -24.4°
Reaches altitude 10° 23:43:27 10° 173° (S) 2,382 6.1 -24.8°
Maximum altitude 23:48:41 70° 257° (WSW) 859 3.8 -25.8°
Drops below altitude 10° 23:53:58 10° 341° (NNW) 2,401 6.2 -26.8°
Sets 23:56:20 0° 344° (NNW) 3,341 6.9 -27.2°
